Regional Weather Roundup
Issued by NWS

Home | Current Version | Previous Version | Text Only | Print | Product List | Glossary On
Versions: 1 2 3 4 5 6 7 8 9 10 11 12 13 14 15 16 17 18 19 20 21 22 23 24 25 26 27 28 29 30 31 32 33 34 35 36 37 38 39 40 41 42 43 44 45 46 47 48 49 50
000
ASUS44 KLIX 010910
RWRLA
LOUISIANA WEATHER ROUNDUP
NATIONAL WEATHER SERVICE NEW ORLEANS LA
300 AM CST SUN FEB 01 2015

NOTE: "FAIR" INDICATES FEW OR NO CLOUDS BELOW 12,000 FEET WITH NO
      SIGNIFICANT WEATHER AND/OR OBSTRUCTIONS TO VISIBILITY.
      SKY/WX - SKY CONDITION AND SIGNIFICANT WEATHER.
      TMP - AIR TEMPERATURE.    DP   - DEWPOINT TEMPERATURE.
      RH  - RELATIVE HUMIDITY.  PRES - PRESSURE.
      HX  - HEAT INDEX.         WCI  - WIND CHILL INDEX.

*  THESE STATIONS ARE NOT NWS OR FAA STATIONS AND ARE NOT UNDER
   NWS QUALITY CONTROL.

LAZ040-048-061>063-065-066-069-011000-
SOUTHEAST LOUISIANA

CITY           SKY/WX    TMP DP  RH WIND       PRES   REMARKS
N.O. AUDUBON     N/A     60  55  82 MISG        N/A
N.O. INTL ARPT CLOUDY    61  53  75 SE12      30.04F
N.O. LAKEFRONT CLOUDY    60  53  77 SE10      30.06F
N.O. DOWNTOWN* NOT AVBL
SLIDELL        CLOUDY    55  51  86 E3        30.05F
BATON ROUGE    CLOUDY    56  51  84 E10       30.03F
BOOTHVILLE     CLOUDY    60  55  83 SE6       30.07S
BELLE CHASSE   CLOUDY    61  53  75 E9        30.04F
BOGALUSA*        N/A     55  49  80 CALM      30.08F
GALLIANO*      CLOUDY    63  59  87 MISG      30.04F
NEW ROADS*     LGT RAIN  55  52  90 E3        30.03F
GONZALES*      CLOUDY    59  55  84 SE7       30.03F
HAMMOND*       CLOUDY    57  50  77 SE6       30.06F
HOUMA*         LGT RAIN  59  57  93 E5        30.03F
PORT FOURCHON* CLOUDY    66  61  82 SE15      30.06F

$$

LAZ041-044-053-054-011000-
SOUTHWEST LOUISIANA

CITY           SKY/WX    TMP DP  RH WIND       PRES   REMARKS
LAKE CHARLES   MOCLDY    57  55  93 SE8       29.95F
LAFAYETTE      CLOUDY    58  54  86 SE9       30.00F
PATTERSON      CLOUDY    61  55  82 SE12G17   30.03S
SALT POINT       N/A     60  57  89 SE8       30.01F
NEW IBERIA     CLOUDY    59  55  87 E7        30.01F
CHENAULT AIRPK MOCLDY    58  56  92 SE8       29.96F

$$

LAZ027-028-011000-
CENTRAL LOUISIANA

CITY           SKY/WX    TMP DP  RH WIND       PRES   REMARKS
FORT POLK      CLOUDY    55  53  92 SE12      29.94F
ALEXANDRIA INT CLOUDY    54  51  90 SE10      29.96F
ALEXANDRIA     CLOUDY    55  51  86 SE7       29.99F

$$

LAZ001-002-011000-
NORTHWEST LOUISIANA

CITY           SKY/WX    TMP DP  RH WIND       PRES   REMARKS
SHREVEPORT     LGT RAIN  55  51  86 S9        29.93F
BARKSDALE AFB  CLOUDY    54  50  87 S14       29.93F
DTN SHREVEPORT CLOUDY    55  49  80 S13       29.94F

$$

LAZ014-016-011000-
NORTHEAST LOUISIANA

CITY           SKY/WX    TMP DP  RH WIND       PRES   REMARKS
MONROE         LGT RAIN  51  49  92 SE6       29.98F
TALLULAH       LGT RAIN  52  48  86 SE7       30.03F

$$




USA.gov is the U.S. government's official web portal to all federal, state and local government web resources and services.